CUTE-1.7+APD II (CO-65) (32785 NORAD) Tracking and Keplerian Element Data

This shows tracking and keplerian element data for the satellite.

Feedback or suggestion? Click here.




ElementValue
Catalog32785
NameCUTE-1.7+APD II (CO-65)
Epoch Orbit89305
Epoch Day286.12823887
Epoch Year2024
RAAN250.7379
Inclination97.7709
Eccentricity0.0007591
Argument of Perigee310.0182
Mean Anonmoly50.0374
Mean Motion14.99325827
Decay Rate0.00015962
L11 32785U 08021C 24286.12823887 .00015962 00000+0 13082-2 0 9995
L22 32785 97.7709 250.7379 0007591 310.0182 50.0374 14.99325827893050



Live tracking and technical data element details for CUTE-1.7+APD II (CO-65) (NORAD 32785). CUTE-1.7+APD II (CO-65) can be tracked NOW for your location showing map with azimuth and elevation plus other details from your city location.







IsCatalogInMostPopularTable: catalog: 32785, numindb: 390
Update: records affected: 1



GetName: 32785 CUTE-1.7+APD II (CO-65)

Hit Count: updated at: Fri, 24 Jan 2025 23:38:50 GMT